Main page
Satellite images Climate Cyclones Lightning AirportsFAQ Languages Contact Newsletter About
Weather : Europe Africa North America South America Asia Australia-Oceania Others

4268, Kota Bharu, Sultan Ismail Petra Airport

48615

latitude: , longitude: Malaysia, elevation: 06-10N m


METAR: WMKC 211700Z 20003KT 140V260 9999 FEW020 BKN220 26/22 Q1008